sat.trackr.live / text

‹ back to catalog

YAOGAN-9 01A

NORAD 36413 · 2010-009A

PAYLOAD ACTIVE UNKNOWN

§ Identity

Operator
Country
PRC
Launch date
2010-03-05
Launch site
JSC
Launch vehicle
Mass (kg)
RCS (m²)
2.70

External: N2YO · Heavens-Above · Gunter

§ Orbital elements

Epoch: 2026-05-25T03:55:28.470144Z

Period
107.01 min
Inclination
63.3661°
Eccentricity
0.0535618
Mean motion
13.45696793 rev/d
Perigee alt
688.2 km
Apogee alt
1,488.0 km
Semi-major
7,466.3 km
B*
9.5130e-5
RAAN
57.7976°
Arg perigee
21.5592°
Mean anomaly
340.7090°
Rev number
79,687

§ Raw data

YAOGAN-9 01A1 36413U 10009A   26145.16352396  .00000044  00000+0  95130-4 0  99992 36413  63.3661  57.7976 0535618  21.5592 340.7090 13.45696793796870

JSON: /api/v1/satellites/36413 · /tle

For live sub-satellite position, see the globe view (requires WebGL).

§ Visibility from observer

Set your observer location to see the next 7 days of passes ≥ 10°. The values pass through the URL so the page stays shareable.

No JS? Fill the form by hand. The geolocation button needs JavaScript.